Location: Ellingshausen
(50.5460°N, 10.4723°E)
Time: 00:18:53
(UTC+00:00)

Cosmos 1763 Rocket - Pass Details

Date: 18 January 2026
Orbit: 729 x 773 km, 74.0° (Epoch: 17 February)

Event Time Altitude Azimuth Distance (km) Brightness Sun altitude
Exits shadow 06:10:51 - 319° (NW) 2,371 5.5 -9.3°
Reaches altitude 10° 06:11:15 10° 317° (NW) 2,239 5.4 -9.2°
Maximum altitude 06:15:30 28° 259° (W) 1,357 4.4 -8.6°
Drops below altitude 10° 06:19:46 10° 201° (SSW) 2,239 5.9 -8.0°
Sets 06:22:23 0° 190° (S) 3,164 6.9 -7.6°
